Location: Arrington
(35.8681°N, 86.7092°W)
Time: 12:45:55
(UTC+00:00)

Cosmos 1500 Rocket - Pass Details

Date: 23 November 2019
Orbit: 602 x 632 km, 82.5° (Epoch: 14 December)

Event Time Altitude Azimuth Distance (km) Brightness Sun altitude
Rises 11:23:16 0° 207° (SSW) 2,908 6.9 -13.7°
Reaches altitude 10° 11:25:40 10° 216° (SW) 2,003 6.0 -13.2°
Maximum altitude 11:29:42 33° 282° (WNW) 1,051 4.2 -12.4°
Drops below altitude 10° 11:33:44 10° 347° (NNW) 2,003 5.9 -11.6°
Sets 11:36:08 0° 357° (N) 2,908 6.8 -11.2°
